Cut Bank, MT

9:44 AM MST on December 12, 2019 (GMT -0700)
Cut Bank Municipal

Weather History for KCTB - August, 2019

Change the Weather History Date:

Sunday, August 11, 2019

  Actual Average Record
Temperature  
Mean Temperature 64 °F 65 °F  
Max Temperature 73 °F 81 °F 97 °F (1996)
Min Temperature 54 °F 50 °F 35 °F (1916)
Degree Days  
Heating Degree Days 2 3  
Month to date heating degree days 13 24  
Since 1 June heating degree days 328 343  
Since 1 July heating degree days 106 110  
Cooling Degree Days 0 3  
Month to date cooling degree days 42 33  
Year to date cooling degree days 95 122  
Since 1 June cooling degree days 95 120  
Growing Degree Days 14 (Base 50)    
Moisture  
Dew Point 52 °F    
Average Humidity 81    
Maximum Humidity 100    
Minimum Humidity 41    
Precipitation  
Precipitation 0.55 in 0.04 in 1.79 in (1999)
Month to date precipitation 0.70 0.40  
Year to date precipitation 8.11 7.87  
Snow  
Snow - - - ()
Snow Depth 0.00 in    
Sea Level Pressure  
Sea Level Pressure 29.97 in    
Wind  
Wind Speed 7 mph ()    
Max Wind Speed 25 mph    
Max Gust Speed 32 mph    
Visibility 7.9 miles    
Events Rain , Thunderstorm    
T = Trace of Precipitation, MM = Missing Value Source: Averaged Metar Reports

Daily Weather History Graph

Daily Weather History Graph

Search for Another Location

Airport or City:

Astronomy

Aug. 11, 2019 Rise Set
Actual Time 6:17 AM MDT 8:51 PM MDT
Civil Twilight 5:41 AM MDT 9:26 PM MDT
Nautical Twilight 4:56 AM MDT 10:11 PM MDT
Astronomical Twilight 4:04 AM MDT 11:03 PM MDT
Moon 6:46 PM MDT (8/11) 2:29 AM MDT (8/11)
Length of Visible Light 15h 44m
Length of Day
14h 34m
Waxing Gibbous, 87% of the Moon is Illuminated
Aug 11
Waxing Gibbous
Aug 15
Full
Aug 23
Last Quarter
Aug 30
New
Sep 5
First Quarter

Hourly Weather History & Observations

Time (MDT) Temp. Dew Point Humidity Pressure Visibility Wind Dir Wind Speed Gust Speed Precip Events Conditions
12:56 AM 54.0 °F 53.1 °F 97% 30.06 in 9.0 mi ESE 5.8 mph - N/A   Overcast
1:56 AM 54.0 °F 52.0 °F 93% 30.05 in 8.0 mi SSE 3.5 mph - N/A   Overcast
2:12 AM 54.0 °F 52.0 °F 93% 30.07 in 8.0 mi South 4.6 mph - N/A   Overcast
2:24 AM 54.0 °F 52.0 °F 93% 30.07 in 7.0 mi South 5.8 mph - N/A   Overcast
2:56 AM 54.0 °F 52.0 °F 93% 30.02 in 8.0 mi SSE 4.6 mph - N/A   Overcast
3:56 AM 54.0 °F 51.1 °F 90% 29.99 in 10.0 mi SSE 5.8 mph - N/A   Overcast
4:56 AM 54.0 °F 52.0 °F 93% 30.00 in 9.0 mi South 3.5 mph - N/A   Overcast
5:47 AM 54.0 °F 51.1 °F 90% 30.03 in 8.0 mi Calm Calm - N/A   Overcast
5:56 AM 54.0 °F 52.0 °F 93% 30.00 in 8.0 mi South 3.5 mph - N/A   Overcast
6:56 AM 54.0 °F 52.0 °F 93% 29.99 in 7.0 mi Calm Calm - N/A   Overcast
7:09 AM 54.0 °F 52.0 °F 93% 30.01 in 8.0 mi Calm Calm - N/A   Overcast
7:26 AM 55.0 °F 52.0 °F 89% 30.00 in 9.0 mi NNE 9.2 mph - N/A   Overcast
7:56 AM 55.0 °F 52.0 °F 89% 30.00 in 9.0 mi East 5.8 mph - N/A   Overcast
8:56 AM 54.0 °F 51.1 °F 90% 30.01 in 10.0 mi South 6.9 mph - N/A   Overcast
9:56 AM 55.0 °F 52.0 °F 89% 30.00 in 9.0 mi ESE 4.6 mph - N/A   Overcast
10:42 AM 55.0 °F 53.1 °F 93% 30.05 in 6.0 mi SSE 11.5 mph - N/A   Overcast
10:56 AM 54.0 °F 52.0 °F 93% 30.02 in 6.0 mi South 11.5 mph - 0.00 in Rain Light Rain
11:56 AM 54.0 °F 53.1 °F 97% 29.97 in 4.0 mi ESE 6.9 mph - 0.01 in Rain Light Rain
12:27 PM 54.0 °F 53.1 °F 97% 29.93 in 7.0 mi NW 8.1 mph 17.3 mph 0.01 in Rain Light Rain
12:51 PM 55.4 °F 53.6 °F 94% 29.94 in 7.0 mi WSW 11.5 mph 24.2 mph 0.01 in   Mostly Cloudy
12:56 PM 55.0 °F 53.1 °F 93% 29.94 in 8.0 mi WSW 19.6 mph - 0.01 in   Overcast
1:05 PM 55.9 °F 53.1 °F 90% 29.97 in 10.0 mi West 13.8 mph 25.3 mph N/A   Mostly Cloudy
1:15 PM 57.9 °F 54.0 °F 87% 29.97 in 10.0 mi West 11.5 mph - N/A   Mostly Cloudy
1:22 PM 59.0 °F 54.0 °F 83% 29.97 in 10.0 mi WNW 10.4 mph - N/A   Partly Cloudy
1:56 PM 62.1 °F 55.0 °F 78% 29.93 in 10.0 mi West 5.8 mph - N/A   Clear
2:56 PM 66.9 °F 54.0 °F 63% 29.91 in 10.0 mi ESE 3.5 mph - N/A   Clear
3:56 PM 71.1 °F 50.0 °F 47% 29.87 in 10.0 mi ESE 10.4 mph - N/A   Mostly Cloudy
4:28 PM 70.0 °F 51.1 °F 51% 29.91 in 10.0 mi SSE 12.7 mph 24.2 mph N/A Thunderstorm Scattered Clouds
4:48 PM 69.1 °F 50.0 °F 51% 29.91 in 10.0 mi SSE 16.1 mph - N/A   Mostly Cloudy
4:56 PM 69.1 °F 48.9 °F 49% 29.85 in 10.0 mi SSE 15.0 mph 23.0 mph N/A   Overcast
5:56 PM 71.1 °F 46.9 °F 42% 29.86 in 10.0 mi South 9.2 mph - N/A   Clear
6:56 PM 68.0 °F 50.0 °F 52% 29.87 in 10.0 mi SE 3.5 mph - N/A   Mostly Cloudy
7:37 PM 64.9 °F 46.0 °F 50% 29.92 in 10.0 mi North 8.1 mph - N/A Thunderstorm Scattered Clouds
7:56 PM 64.0 °F 46.0 °F 52% 29.88 in 10.0 mi NE 5.8 mph - N/A Thunderstorm Mostly Cloudy
8:11 PM 59.0 °F 50.0 °F 72% 29.95 in 9.0 mi West 12.7 mph - N/A Thunderstorm Thunderstorm
8:21 PM 55.9 °F 51.1 °F 84% 29.96 in 1.8 mi West 18.4 mph 25.3 mph 0.10 in Rain , Thunderstorm Heavy Thunderstorms and Rain
8:36 PM 55.0 °F 52.0 °F 89% 29.98 in 1.5 mi West 15.0 mph - 0.34 in Rain , Thunderstorm Heavy Thunderstorms and Rain
8:39 PM 55.0 °F 52.0 °F 89% 29.98 in 2.0 mi West 13.8 mph - 0.36 in Rain , Thunderstorm Heavy Thunderstorms and Rain
8:53 PM 55.4 °F 51.8 °F 88% 29.98 in 3.0 mi WNW 9.2 mph - 0.42 in Rain Rain
8:56 PM 55.0 °F 52.0 °F 89% 29.96 in 3.0 mi WNW 8.1 mph - 0.42 in Rain Rain
9:56 PM 55.9 °F 52.0 °F 87% 29.94 in 5.0 mi West 13.8 mph - 0.09 in Rain Light Rain
10:56 PM 55.9 °F 51.1 °F 84% 29.95 in 10.0 mi WSW 12.7 mph - 0.01 in   Overcast
11:56 PM 55.9 °F 48.9 °F 77% 29.97 in 10.0 mi West 11.5 mph - 0.01 in   Overcast